This is the latest recevied weather packets stored in our database for station/object WI0K. If no packets are shown the sender has not sent any weather packets the latest 10 day(s).
| Time | Temp. | Humidity | Pressure | Rain* | Wind** | Luminosity | Snow |
|---|---|---|---|---|---|---|---|
| 1787984204 | 20° C | 60% | 1021.6 hPa | 0 mm | - | 0 W/m² | - |
| 1787983903 | 20.56° C | 60% | 1021.5 hPa | 0 mm | - | 0 W/m² | - |
| 1787983602 | 21.11° C | 52% | 1021.4 hPa | 0 mm | - | 0 W/m² | - |
| 1787983302 | 21.11° C | 51% | 1021.2 hPa | 0 mm | - | 0 W/m² | - |
| 1787983001 | 21.67° C | 51% | 1021.1 hPa | 0 mm | - | 0 W/m² | - |
| 1787982700 | 21.67° C | 50% | 1021.1 hPa | 0 mm | - | 0 W/m² | - |
| 1787982399 | 21.11° C | 51% | 1021.1 hPa | 0 mm | - | 0 W/m² | - |
| 1787982099 | 21.11° C | 52% | 1021.1 hPa | 0 mm | - | 0 W/m² | - |
| 1787981798 | 21.67° C | 52% | 1021 hPa | 0 mm | - | 0 W/m² | - |
| 1787981498 | 21.67° C | 51% | 1021 hPa | 0 mm | - | 0 W/m² | - |
| 1787981197 | 22.22° C | 51% | 1021 hPa | 0 mm | - | 0 W/m² | - |
| 1787980896 | 22.22° C | 49% | 1021 hPa | 0 mm | - | 0 W/m² | - |
| 1787980595 | 22.22° C | 49% | 1021 hPa | 0 mm | - | 0 W/m² | - |
| 1787980295 | 22.22° C | 50% | 1021.1 hPa | 0 mm | - | 0 W/m² | - |
| 1787979994 | 22.22° C | 50% | 1021.1 hPa | 0 mm | - | 0 W/m² | - |
| 1787979693 | 22.78° C | 47% | 1021.1 hPa | 0 mm | - | 0 W/m² | - |
| 1787979393 | 22.78° C | 46% | 1021.2 hPa | 0 mm | - | 0 W/m² | - |
| 1787979092 | 22.78° C | 46% | 1021.2 hPa | 0 mm | - | 0 W/m² | - |
| 1787978791 | 22.78° C | 44% | 1021.4 hPa | 0 mm | - | 0 W/m² | - |
| 1787978490 | 22.78° C | 49% | 1021.2 hPa | 0 mm | - | 0 W/m² | - |
| 1787978190 | 22.78° C | 44% | 1021.2 hPa | 0 mm | - | 0 W/m² | - |
| 1787977888 | 23.33° C | 43% | 1021.4 hPa | 0 mm | - | 0 W/m² | - |
| 1787977587 | 23.33° C | 43% | 1021.4 hPa | 0 mm | - | 0 W/m² | - |
| 1787977286 | 23.33° C | 42% | 1021.4 hPa | 0 mm | - | 0 W/m² | - |
| 1787976985 | 23.33° C | 41% | 1021.5 hPa | 0 mm | - | 0 W/m² | - |
* Rain latest hour (hover to see other rain measurements)
** Current wind speed in m/s (hover to see current wind gust speed)